SL-16 DEB

Satellite information

Favourite Embed

Satellite Type and Status

DEBRISIN ORBIT

Key statistics

Satellite SL-16 DEB at a glance.

Uptime

12041

Days in orbit

Revolutions

≈ 14.2

Per day

Orbit

LEO

Low Earth Orbit

Inclination

71.1

Latest

Satellite identification and parameters

Extended collection of information and parameters for SL-16 DEB.

Object identification

Identified? True

Debris? True

Object name: SL-16 DEB

International designator: 1992-093KE

Object number (NORAD): 39714

Object ID (CCSDS): 39714

Country: COMMONWEALTH OF INDEPENDENT STATES (CIS)

Current information (Y/N): Y

RCS size: SMALL

Orbital parameters

Period: 101.069 minutes

Inclination: 71.0847 deg

SMA: 7187.398 km

Apoapsis: 874.346 km

Periapsis: 744.18 km

RAAN: 61.9545 deg

Eccentricy: 0.00905518

Argument of periapsis: 74.6232 deg

Mean anomaly: 286.4879 deg

Mean motion: 14.24771476 rev/day

Mean motion (dot): 0.00000696 rev/day2

B* drag term: 0.00030580064 1/REarth

Two-line elements (TLE)

Creation date: Dec. 12, 2025, 10:14 a.m.

Reference frame: TEME

Reference center: EARTH

Epoch: Dec. 12, 2025, 5:20 a.m. UTC

TLE line 0: 0 SL-16 DEB

TLE line 1: 1 39714U 92093KE 25346.22230374 .00000696 00000-0 30580-3 0 9990

TLE line 2: 2 39714 71.0847 61.9545 0090552 74.6232 286.4879 14.24771476625974

Live tracking on map

Real-time ground track for satellite SL-16 DEB.

In-orbit conjunctions

A list of the most updated potential collisions computed for object SL-16 DEB.

Target Orbit TCA Probability of collision Miss distance Type
FENGYUN 1C DEB SSO 2025-03-25 06:52:17 0.0001621311 235.0 (m) DEBRIS
FENGYUN 1C DEB SSO 2025-02-13 13:01:02 0.0003475623 127.0 (m) DEBRIS
CZ-6A DEB SSO 2025-01-21 03:40:53 0.0001097369 271.0 (m) DEBRIS
NOAA 16 DEB SSO 2024-11-15 23:35:16 0.000226354 582.0 (m) DEBRIS
NOAA 16 DEB SSO 2024-11-15 21:53:58 0.0006133059 303.0 (m) DEBRIS

Associated space launch

Second generation ELING satellite

SL-16 DEB was lifted into orbit during the mission ‘Zenit-2 | Tselina-2 12’, on board a Zenit-2 space rocket.

The launch took place on Dec. 25, 1992, 5:56 a.m. from 45/1.

For more information about the launch, click the button.

Launch to space Zenit-2 | Tselina-2 12
Zenit-2 | Tselina-2 12

Agency: N/A

Status: Launch Successful

Launch date: Dec. 25, 1992, 5:56 a.m. UTC

Rocket: Zenit-2

Launch pad: 45/1

Location: Baikonur Cosmodrome, Republic of Kazakhstan

...

Latest news about this satellite

There are no fresh news available about this satellite. Check back as we update our databases every day.


Newsletter sign-up

Weekly statistics, charts and insights to help you stay on top of the space industry.